Weather History for Phoenix Deer Valley, AZ

Change the Weather History Date:

Monday, September 3, 2012

  Actual Average Record
Temperature  
Mean Temperature 93 °F -  
Max Temperature 102 °F 97 °F 106 °F (2010)
Min Temperature 84 °F 77 °F 69 °F (1999)
Cooling Degree Days 28    
Growing Degree Days 43 (Base 50)    
Moisture  
Dew Point 62 °F    
Average Humidity 37    
Maximum Humidity 48    
Minimum Humidity 24    
Precipitation  
Precipitation 0.00 in - - ()
Sea Level Pressure  
Sea Level Pressure 29.84 in    
Wind  
Wind Speed 6 mph (WSW)    
Max Wind Speed 14 mph    
Max Gust Speed 21 mph    
Visibility 10 miles    
Events      
Averages and records for this station are not official NWS values.
T = Trace of Precipitation, MM = Missing Value Source: NWS Daily Summary

Daily Weather History Graph

Daily Weather History Graph

Search for Another Location

Airport:

Trip Planner

Search our weather history database for the weather conditions in past years. The results will help you decide how hot, cold, wet, or windy it might be!

Date:

Astronomy

Sep. 03, 2012 Rise Set
Actual Time 6:03 AM MST 6:50 PM MST
Civil Twilight 5:38 AM MST 7:15 PM MST
Nautical Twilight 5:08 AM MST 7:45 PM MST
Astronomical Twilight 4:38 AM MST 8:16 PM MST
Moon 8:25 PM MST (9/3) 9:02 AM MST (9/3)
Length of Visible Light 13h 37m
Length of Day
12h 46m
Waning Gibbous, 90% of the Moon is Illuminated
Sep 3
Waning Gibbous
Sep 8
Last Quarter
Sep 15
New
Sep 22
First Quarter
Sep 29
Full

Hourly Weather History & Observations

Time (MST) Temp. Heat Index Dew Point Humidity Pressure Visibility Wind Dir Wind Speed Gust Speed Precip Events Conditions
12:53 AM 89.1 °F 89.3 °F 62.1 °F 40% 29.80 in 8.0 mi East 6.9 mph - N/A   Clear
1:53 AM 88.0 °F 88.4 °F 62.1 °F 42% 29.80 in 7.0 mi NNE 5.8 mph - N/A   Clear
2:53 AM 88.0 °F 88.4 °F 62.1 °F 42% 29.79 in 8.0 mi NNW 4.6 mph - N/A   Clear
3:30 AM 87.8 °F 87.6 °F 60.8 °F 40% 29.89 in 10.0 mi Calm Calm - N/A   Mostly Cloudy
3:53 AM 86.0 °F 86.1 °F 61.0 °F 43% 29.81 in 9.0 mi Calm Calm - N/A   Partly Cloudy
4:53 AM 84.9 °F 85.4 °F 62.1 °F 46% 29.83 in 9.0 mi Calm Calm - N/A   Clear
5:53 AM 84.0 °F 84.5 °F 62.1 °F 47% 29.85 in 9.0 mi Calm Calm - N/A   Clear
6:53 AM 84.0 °F 84.5 °F 62.1 °F 47% 29.88 in 8.0 mi Calm Calm - N/A   Clear
7:53 AM 84.9 °F 85.9 °F 63.0 °F 48% 29.90 in 9.0 mi East 3.5 mph - N/A   Clear
8:53 AM 87.1 °F 87.8 °F 63.0 °F 44% 29.91 in 10.0 mi SSE 3.5 mph - N/A   Clear
9:53 AM 91.0 °F 91.9 °F 63.0 °F 39% 29.92 in 10.0 mi SSW 10.4 mph - N/A   Clear
10:53 AM 93.9 °F 95.2 °F 63.0 °F 36% 29.91 in 10.0 mi SW 13.8 mph 20.7 mph N/A   Clear
11:53 AM 93.9 °F 94.8 °F 62.1 °F 35% 29.90 in 10.0 mi SW 9.2 mph - N/A   Clear
12:53 PM 96.1 °F 96.9 °F 62.1 °F 32% 29.87 in 10.0 mi SSW 9.2 mph - N/A   Clear
1:53 PM 98.1 °F 98.6 °F 61.0 °F 29% 29.85 in 10.0 mi SW 6.9 mph - N/A   Clear
2:53 PM 98.1 °F 98.6 °F 61.0 °F 29% 29.81 in 10.0 mi West 5.8 mph - N/A   Clear
3:53 PM 100.0 °F 99.7 °F 57.9 °F 25% 29.79 in 10.0 mi WSW 10.4 mph 17.3 mph N/A   Clear
4:53 PM 102.0 °F 102.2 °F 59.0 °F 24% 29.78 in 10.0 mi NW 12.7 mph - N/A   Partly Cloudy
5:53 PM 100.0 °F 99.7 °F 57.9 °F 25% 29.77 in 10.0 mi West 11.5 mph - N/A   Clear
6:53 PM 98.1 °F 98.1 °F 60.1 °F 28% 29.78 in 10.0 mi SW 8.1 mph - N/A   Clear
8:53 PM 95.0 °F 95.2 °F 61.0 °F 32% 29.82 in 10.0 mi WSW 8.1 mph - N/A   Clear
9:53 PM 93.9 °F 95.2 °F 63.0 °F 36% 29.84 in 10.0 mi West 12.7 mph - N/A   Clear
10:53 PM 93.0 °F 94.2 °F 63.0 °F 37% 29.86 in 10.0 mi West 8.1 mph - N/A   Clear
11:53 PM 91.0 °F 92.6 °F 64.0 °F 41% 29.87 in 10.0 mi SW 9.2 mph - N/A   Clear